Regional Weather Roundup
Issued by NWS

Home | Current Version | Previous Version | Text Only | Print | Product List | Glossary Off
Versions: 1 2 3 4 5 6 7 8 9 10 11 12 13 14 15 16 17 18 19 20 21 22 23 24 25 26 27 28 29 30 31 32 33 34 35 36 37 38 39 40 41 42 43 44 45 46 47 48 49 50

000
ASUS43 KFSD 030310
RWRSD

WEATHER ROUNDUP FOR SOUTH DAKOTA
NATIONAL WEATHER SERVICE SIOUX FALLS SD
1000 PM CDT TUE JUN 02 2015

NOTE: "FAIR" INDICATES FEW OR NO CLOUDS BELOW 12,000 FEET WITH NO
SIGNIFICANT WEATHER AND/OR OBSTRUCTIONS TO VISIBILITY.


SDZ001>005-009-010-012>017-030400-
NORTHWEST AND NORTH CENTRAL SOUTH DAKOTA

CITY           SKY/WX    TMP DP  RH WIND       PRES   REMARKS
BUFFALO          N/A     60  52  74 NW24G30   29.85R
FAITH            N/A     72  56  57 N5        29.82R
MOBRIDGE       MOCLDY    71  62  73 NW8       29.71R
$$

SDZ012>016-024>037-041>051-057-063-072>074-030400-
SOUTHWEST AND SOUTH CENTRAL SOUTH DAKOTA

CITY           SKY/WX    TMP DP  RH WIND       PRES   REMARKS
RAPID CTY ARPT MOCLDY    61  58  90 NW7       29.85R
PIERRE         CLOUDY    74  59  59 N16       29.71F
CUSTER         PTCLDY    57  32  38 NE6       29.95S
ELLSWORTH AFB  MOCLDY    62  60  94 W6        29.85R
PHILIP         LGT RAIN  70  60  70 S7        29.77F
PINE RIDGE     CLOUDY    61  53  75 NE7       29.82R
SPEARFISH      HVY RAIN  61  54  77 N15G24    29.94R
WINNER         FAIR      76  64  66 S16G26    29.76R
$$

SDZ004>011-016>023-039-040-030400-
NORTHEAST SOUTH DAKOTA

CITY           SKY/WX    TMP DP  RH WIND       PRES   REMARKS
ABERDEEN       PTCLDY    77  64  64 S9        29.69R
WATERTOWN      MOCLDY    72  61  68 S12       29.77S
BROOKINGS      MOCLDY    73  61  64 S15       29.81S
SISSETON         N/A     74  62  66 S15       29.72S
$$

SDZ017-020-022-023-036>040-048>070-030400-
SOUTHEAST SOUTH DAKOTA

CITY           SKY/WX    TMP DP  RH WIND       PRES   REMARKS
SIOUX FALLS    CLOUDY    72  61  68 S18G26    29.83R
HURON          MOCLDY    76  61  59 S13G21    29.74R
CHAMBERLAIN    CLOUDY    73  64  74 S7        29.75R
MITCHELL       MOCLDY    75  63  66 S12       29.76R
YANKTON        PTCLDY    72  61  68 SE15G21   29.81S
$$

ABBREVIATIONS USED IN REMARKS
   TC - TEMPERATURE IN CELSIUS
  WCI - WIND CHILL INDEX
   HX - HEAT INDEX
  VSB - VISIBILITY




USA.gov is the U.S. government's official web portal to all federal, state and local government web resources and services.